Location: Hamilton
(37.7830°S, 175.2830°E)
Time: 09:36:58
(UTC+13:00)

Cosmos 1844 Rocket - Pass Details

Date: 24 January 2019
Orbit: 824 x 845 km, 71.0° (Epoch: 18 February)

Event Time Altitude Azimuth Distance (km) Brightness Sun altitude
Rises 22:53:38 0° 196° (SSW) 3,406 7.0 -22.1°
Reaches altitude 10° 22:56:14 10° 188° (S) 2,469 5.9 -22.4°
Maximum altitude 23:01:34 41° 118° (ESE) 1,199 3.3 -23.1°
Enters shadow 23:02:36 38° 91° (E) 1,268 3.3 -23.2°
